Wind_Speed
29 30 32 33 34 34 34 35 35 35 36 38 38 39 40 41 43 42 43 44 44 45 46 46 47 48 49 50 50 50 51 52 52 51 52 52 53 54 54 54 54 53 53
29 30 31 32 33 34 35 35 36 37 37 38 38 39 40 41 43 43 43 44 44 45 46 47 48 48 49 50 50 51 52 52 52 52 53 53 54 54 55 55 55 55 55
29 30 31 32 33 34 35 36 36 38 39 39 40 40 41 42 43 44 44 44 45 45 46 47 48 49 49 50 50 51 52 52 53 53 53 54 55 55 56 56 56 56 56
30 31 32 33 34 35 36 37 38 39 39 40 40 41 42 43 43 43 44 45 45 46 47 48 49 49 49 49 50 51 51 53 53 54 54 54 55 55 56 56 56 56 56
31 32 33 35 35 36 37 38 39 40 40 40 41 41 42 43 43 44 44 45 46 47 47 48 48 49 50 50 51 51 52 53 54 55 55 55 55 56 56 56 55 55 55
33 33 35 36 36 37 37 37 38 40 41 41 42 42 42 43 44 46 46 46 47 47 47 48 49 50 51 51 52 53 53 54 55 55 56 55 55 55 55 55 55 54 54
34 34 35 36 37 37 39 39 39 40 41 43 43 43 44 45 45 46 47 47 47 48 48 49 50 50 51 52 53 53 54 55 55 56 55 55 55 55 54 53 53 53 52
33 34 34 35 36 37 39 39 39 40 41 42 43 44 44 45 45 45 46 47 47 48 49 50 50 51 52 52 53 54 54 54 55 56 55 55 55 54 53 53 53 53 53
34 35 36 37 38 39 39 40 40 41 41 42 42 43 43 44 44 45 46 47 48 48 49 50 51 51 52 53 54 54 54 54 55 54 54 54 54 53 53 53 53 54 53
36 37 38 38 39 40 40 41 41 41 41 42 42 42 43 44 44 45 45 47 48 48 49 50 51 51 52 52 53 53 53 53 53 53 52 52 52 52 52 53 53 53 53
38 38 39 39 40 40 40 41 42 42 42 42 42 42 43 43 44 45 46 46 47 48 49 50 51 51 51 51 51 51 51 51 50 50 49 49 50 50 51 52 52 53 52
39 39 39 40 41 41 41 42 43 42 42 42 42 42 42 43 44 45 46 47 48 49 49 50 50 50 50 50 50 49 49 49 48 47 48 48 49 49 50 51 51 51 51
40 40 40 41 41 42 42 42 43 43 44 43 43 43 43 44 45 46 47 48 49 49 50 50 49 49 49 48 48 48 48 47 47 47 47 47 48 49 50 50 50 50 50
41 42 42 42 42 42 43 43 43 44 44 45 44 44 44 45 45 46 47 48 49 49 49 49 48 48 47 47 46 46 46 46 45 46 46 46 48 48 48 48 48 48 48
42 42 43 43 43 44 44 44 44 45 45 45 45 45 45 46 46 47 47 48 48 48 48 47 46 46 46 46 45 45 45 45 45 46 46 46 46 46 46 47 47 47 47
43 43 43 44 44 44 44 44 44 45 45 46 46 46 46 46 47 47 47 47 47 47 46 45 45 45 45 44 44 45 45 45 45 46 46 46 46 46 45 45 45 46 46
44 44 44 44 44 44 44 44 44 44 45 45 45 46 46 46 46 47 47 47 46 45 45 45 44 44 44 44 44 44 44 44 44 44 45 45 45 44 44 44 44 44 44
44 44 44 44 44 43 43 43 44 44 44 44 44 45 45 45 46 46 46 45 45 45 44 44 43 43 43 43 43 42 42 43 43 43 43 43 43 43 43 44 44 43 42
43 44 44 44 43 43 43 43 43 43 43 43 43 43 44 44 45 45 44 44 43 43 43 42 42 42 42 42 42 41 41 42 42 42 43 43 43 43 43 43 43 42 41
43 43 43 43 43 43 42 42 42 42 41 41 42 42 43 43 43 43 43 42 42 41 41 41 41 41 41 41 41 41 41 41 42 42 42 42 42 42 42 42 41 40 39
42 42 42 42 42 41 41 41 40 40 41 41 41 42 42 42 42 41 41 40 40 40 39 40 40 40 40 39 39 40 40 41 41 41 41 41 41 41 41 40 38 37 36
41 40 40 40 40 40 40 40 39 39 40 40 41 41 41 41 41 40 39 39 38 38 39 39 39 39 39 38 39 39 40 41 41 41 41 40 40 39 38 37 35 35 34
38 37 37 37 37 38 38 38 38 39 40 40 40 40 40 40 39 38 38 38 38 38 38 39 38 38 38 39 40 41 41 41 41 41 40 39 38 37 36 35 34 33 31
37 36 35 35 35 36 36 37 38 38 39 39 39 40 39 39 38 37 37 38 38 38 38 38 38 38 39 40 41 41 41 41 39 39 38 37 36 35 34 33 32 30 28
35 35 35 35 35 36 36 36 37 37 38 38 39 39 39 38 37 37 37 37 37 37 37 38 38 39 39 40 40 40 40 39 38 37 37 35 34 32 31 30 29 27 25
35 35 35 36 36 36 36 36 37 37 37 38 38 37 37 36 36 36 36 36 36 37 37 37 37 38 38 38 38 38 37 36 35 34 33 32 31 29 28 27 25 23 22
Wind_Direction
258 259 260 259 259 261 264 265 265 267 268 267 267 269 270 271 272 272 273 274 275 276 277 278 279 279 280 280 281 281 282 282 282 282 282 283 283 283 283 284 284 284 284
262 262 262 263 263 265 267 267 267 268 269 269 270 271 272 273 274 274 274 275 276 277 278 279 280 280 280 281 282 282 282 283 283 283 283 283 284 284 284 284 284 284 284
266 265 266 266 267 268 271 270 269 269 270 270 272 274 275 276 277 276 276 277 277 278 279 280 281 281 282 282 283 283 283 283 284 284 284 284 284 284 285 285 285 285 284
268 267 268 268 269 269 271 273 273 272 271 272 274 276 276 276 277 277 278 278 279 279 279 280 281 282 282 283 283 284 284 284 284 285 285 285 285 285 285 286 286 286 285
271 271 272 271 271 272 274 274 274 274 273 275 277 277 277 277 277 278 279 279 280 280 280 281 282 282 282 283 284 284 284 284 284 285 285 286 286 286 286 286 286 286 285
272 272 274 273 274 274 275 278 277 277 276 276 278 278 278 278 278 278 278 279 280 280 281 282 282 283 283 284 284 284 284 284 285 285 286 286 286 287 287 288 287 286 286
274 275 275 275 277 277 277 278 280 280 279 278 279 279 278 279 279 279 279 280 281 281 282 283 284 284 285 285 285 285 285 286 286 286 286 287 287 287 287 288 288 288 287
275 275 276 277 277 277 278 280 281 282 281 281 280 279 279 280 279 280 280 280 282 283 284 284 284 285 286 285 285 286 286 286 286 286 287 287 287 287 287 288 288 288 287
276 276 277 278 279 280 280 281 282 282 284 283 283 281 281 281 281 282 282 282 283 284 285 285 285 286 285 285 286 287 287 287 286 287 287 287 287 286 287 288 288 289 288
277 277 277 279 281 281 281 281 282 283 284 284 284 284 284 283 283 283 283 284 284 285 285 286 287 287 287 287 287 287 288 288 287 287 287 286 286 286 288 289 289 290 290
279 279 278 280 281 281 281 282 282 283 283 284 285 286 285 285 285 285 285 285 285 285 286 287 287 288 288 288 288 288 288 288 288 287 286 286 286 287 289 290 291 291 290
279 279 279 280 280 281 282 282 283 283 284 284 285 285 285 286 286 285 285 286 286 287 287 288 288 288 287 287 287 287 288 288 288 287 287 287 288 288 289 290 291 292 291
280 279 279 280 280 281 282 283 283 283 283 283 284 284 285 285 285 286 285 286 287 288 289 289 288 288 288 287 288 287 288 288 288 288 288 288 289 290 291 291 291 291 291
281 280 280 280 281 281 282 283 283 284 284 284 284 284 284 285 286 287 287 287 289 290 290 290 290 289 289 288 288 288 289 289 289 289 289 289 290 291 292 292 292 291 291
282 282 281 281 282 281 281 282 283 283 284 283 283 284 285 286 287 287 287 288 289 290 290 290 289 289 289 289 289 289 289 289 289 289 289 290 291 292 293 293 292 292 292
282 282 282 281 282 282 282 281 282 282 283 283 283 284 285 286 287 288 289 290 290 290 290 290 290 290 290 289 289 288 289 289 289 290 290 291 292 292 293 293 293 294 294
283 282 282 282 282 282 281 281 280 281 282 283 283 284 286 287 288 289 289 290 290 290 290 290 289 290 290 289 289 288 288 289 290 290 291 292 293 293 293 294 294 295 294
284 283 283 283 282 282 281 281 281 281 281 282 283 284 285 287 288 289 290 290 289 290 290 289 288 289 289 290 290 289 289 290 290 291 292 293 293 293 294 294 295 294 294
284 284 283 283 282 282 282 282 281 282 282 282 283 284 285 287 289 290 291 290 290 290 290 289 289 290 291 291 291 291 291 291 292 292 293 293 294 294 295 295 295 294 293
284 284 283 282 281 281 281 282 282 282 283 283 284 284 286 288 290 290 290 290 289 289 290 290 291 291 292 293 293 293 293 293 293 294 294 294 295 295 295 295 295 294 293
284 284 283 283 282 281 281 282 282 282 283 284 285 286 287 289 290 290 290 289 288 289 290 291 292 292 293 294 294 294 295 295 295 296 296 296 296 296 295 295 294 293 293
285 284 284 283 282 282 282 282 282 283 283 284 286 288 288 289 289 289 288 288 288 289 290 292 292 293 294 294 295 296 296 296 296 296 296 296 296 296 295 294 293 293 293
285 285 285 284 283 283 283 283 283 283 284 285 285 287 288 288 288 288 287 288 289 290 291 292 292 293 294 295 296 296 296 296 296 296 296 295 295 295 294 293 293 292 292
283 284 285 285 285 285 285 285 285 285 285 285 286 287 288 288 288 287 287 288 289 290 291 292 292 294 295 296 296 297 297 297 296 296 296 295 295 294 293 292 292 291 290
282 283 284 284 285 285 286 286 286 286 287 287 288 288 288 288 287 287 287 288 289 290 291 292 293 294 295 296 297 298 298 297 296 296 296 295 294 293 292 292 290 288 286
283 283 284 285 285 285 286 287 287 288 288 289 289 289 288 288 287 287 288 289 290 291 292 293 293 294 296 297 298 299 298 297 296 296 296 295 293 292 292 291 288 286 284
Height
5685 5686 5686 5687 5688 5688 5689 5690 5690 5691 5691 5691 5691 5691 5691 5691 5691 5691 5690 5689 5689 5688 5686 5685 5684 5682 5680 5679 5677 5675 5673 5672 5671 5670 5666 5663 5661 5658 5656 5653 5651 5648 5646
5678 5679 5679 5680 5680 5680 5680 5680 5681 5681 5681 5681 5681 5681 5681 5680 5680 5679 5678 5677 5677 5676 5674 5673 5671 5669 5667 5665 5664 5662 5660 5658 5656 5655 5652 5649 5647 5644 5641 5639 5636 5633 5630
5671 5671 5672 5672 5672 5672 5671 5671 5671 5671 5671 5671 5671 5670 5670 5669 5668 5667 5666 5665 5664 5663 5662 5660 5658 5656 5654 5652 5650 5648 5646 5644 5641 5640 5638 5635 5632 5629 5627 5624 5620 5617 5614
5663 5663 5664 5664 5663 5663 5662 5662 5661 5661 5660 5660 5659 5658 5658 5657 5656 5656 5654 5653 5652 5651 5649 5647 5645 5643 5641 5639 5637 5634 5632 5629 5627 5625 5623 5620 5617 5614 5611 5609 5606 5602 5599
5655 5655 5655 5654 5654 5653 5653 5652 5651 5650 5650 5649 5648 5647 5646 5645 5644 5643 5642 5641 5640 5638 5636 5634 5632 5630 5627 5625 5623 5620 5617 5615 5612 5609 5607 5605 5602 5599 5596 5593 5590 5587 5583
5647 5646 5646 5645 5644 5644 5643 5641 5641 5640 5639 5638 5636 5635 5634 5633 5632 5631 5630 5629 5627 5625 5623 5621 5619 5616 5613 5611 5608 5606 5603 5600 5597 5594 5592 5589 5586 5583 5580 5577 5573 5571 5569
5638 5637 5637 5636 5635 5634 5632 5631 5630 5629 5627 5626 5624 5623 5622 5621 5619 5618 5617 5615 5614 5612 5610 5608 5605 5603 5599 5597 5594 5591 5588 5584 5582 5579 5576 5573 5570 5568 5565 5561 5558 5555 5552
5629 5628 5627 5626 5625 5623 5622 5620 5619 5617 5616 5614 5612 5611 5609 5608 5606 5605 5604 5602 5600 5598 5596 5594 5592 5589 5585 5582 5579 5576 5573 5569 5566 5563 5561 5558 5554 5551 5548 5546 5543 5540 5537
5619 5618 5617 5616 5614 5613 5611 5609 5607 5606 5604 5602 5600 5599 5597 5596 5594 5592 5591 5589 5588 5585 5583 5580 5577 5574 5571 5568 5565 5562 5558 5555 5551 5547 5544 5541 5538 5535 5532 5530 5527 5524 5522
5609 5607 5606 5605 5603 5602 5600 5598 5596 5595 5593 5591 5589 5587 5585 5584 5582 5580 5578 5577 5575 5573 5570 5567 5563 5559 5556 5553 5550 5546 5543 5539 5536 5532 5529 5526 5523 5520 5517 5514 5511 5508 5505
5598 5597 5595 5594 5592 5591 5589 5587 5585 5583 5582 5580 5578 5576 5574 5572 5570 5567 5565 5564 5561 5559 5556 5553 5549 5545 5542 5538 5535 5531 5528 5525 5521 5518 5515 5512 5509 5506 5503 5499 5496 5492 5489
5587 5586 5584 5583 5581 5579 5577 5576 5574 5572 5570 5568 5566 5564 5562 5559 5557 5555 5553 5550 5548 5545 5542 5539 5535 5531 5528 5524 5521 5517 5514 5510 5507 5504 5501 5498 5495 5492 5489 5485 5482 5478 5474
5575 5574 5573 5571 5569 5567 5565 5564 5562 5560 5558 5556 5555 5553 5550 5548 5545 5543 5540 5537 5534 5531 5528 5524 5521 5517 5514 5511 5507 5504 5500 5497 5494 5491 5488 5485 5482 5478 5475 5472 5468 5464 5461
5563 5562 5560 5559 5557 5555 5553 5551 5549 5548 5546 5544 5542 5541 5538 5536 5533 5530 5527 5524 5521 5518 5514 5511 5507 5504 5501 5497 5494 5490 5487 5484 5481 5478 5475 5472 5469 5465 5461 5458 5454 5451 5448
5551 5549 5548 5546 5544 5543 5541 5539 5537 5535 5533 5531 5530 5528 5526 5524 5520 5517 5514 5511 5508 5505 5501 5498 5494 5491 5488 5484 5481 5477 5474 5471 5468 5465 5462 5459 5456 5452 5448 5444 5441 5437 5434
5538 5537 5535 5533 5531 5529 5528 5526 5524 5522 5520 5518 5516 5514 5512 5510 5507 5504 5501 5498 5494 5491 5488 5485 5482 5478 5475 5472 5468 5465 5462 5458 5455 5452 5449 5446 5443 5439 5435 5431 5427 5424 5421
5525 5524 5522 5520 5518 5516 5515 5513 5512 5510 5507 5505 5503 5501 5499 5497 5494 5491 5488 5485 5482 5478 5475 5472 5469 5466 5463 5459 5456 5453 5449 5446 5443 5439 5436 5433 5429 5426 5422 5419 5415 5411 5408
5512 5510 5508 5507 5505 5503 5501 5500 5498 5497 5495 5493 5491 5488 5486 5484 5481 5478 5475 5472 5469 5465 5462 5459 5456 5453 5450 5447 5443 5440 5437 5433 5430 5427 5424 5420 5417 5413 5410 5406 5403 5399 5396
5499 5497 5495 5493 5491 5490 5488 5487 5485 5484 5482 5481 5479 5476 5473 5471 5468 5465 5461 5459 5456 5453 5450 5447 5444 5441 5438 5434 5431 5428 5424 5421 5418 5414 5411 5408 5404 5401 5397 5394 5390 5387 5384
5486 5484 5482 5480 5478 5477 5475 5474 5472 5471 5469 5468 5466 5463 5461 5458 5456 5453 5449 5446 5443 5441 5438 5435 5432 5429 5425 5422 5419 5415 5412 5409 5405 5402 5399 5395 5392 5388 5385 5382 5378 5375 5372
5473 5471 5469 5467 5465 5464 5463 5461 5460 5458 5457 5455 5453 5451 5448 5446 5443 5440 5437 5434 5431 5429 5426 5423 5420 5417 5413 5410 5407 5403 5400 5397 5393 5390 5386 5383 5379 5376 5373 5370 5367 5364 5361
5460 5458 5456 5455 5453 5452 5450 5449 5448 5446 5445 5443 5441 5438 5436 5433 5430 5428 5425 5422 5420 5417 5415 5412 5409 5405 5402 5399 5395 5392 5389 5385 5381 5378 5374 5371 5368 5364 5361 5358 5356 5353 5351
5449 5447 5445 5443 5442 5440 5439 5437 5436 5434 5433 5431 5428 5426 5424 5421 5418 5416 5413 5411 5409 5406 5403 5400 5397 5394 5390 5387 5384 5380 5377 5373 5369 5366 5362 5359 5356 5353 5350 5348 5346 5343 5341
5437 5436 5434 5432 5431 5429 5428 5426 5424 5422 5420 5418 5416 5414 5411 5409 5406 5404 5402 5399 5397 5394 5391 5388 5385 5382 5379 5375 5371 5368 5364 5360 5357 5354 5351 5348 5345 5342 5340 5338 5336 5334 5332
5426 5425 5423 5422 5420 5418 5417 5415 5413 5411 5409 5406 5404 5402 5399 5397 5395 5392 5390 5388 5385 5383 5380 5377 5374 5371 5367 5363 5360 5356 5352 5348 5345 5342 5339 5336 5334 5331 5329 5327 5326 5324 5323
5415 5414 5412 5410 5409 5407 5406 5404 5402 5399 5397 5395 5392 5390 5387 5385 5383 5381 5379 5376 5374 5371 5368 5365 5362 5359 5356 5352 5349 5345 5341 5337 5334 5331 5328 5326 5324 5322 5320 5318 5317 5316 5316